RH
22 24 25 23 24 20 11 13 15 12 11 11 9 5 4 2 4 5 4 6 7 9 10 12 13 10 12 15 14 19 31 36 38 37 49 53 39 44 50 56 65 67 70 76 79 62 60 60 49 61 73 78 82 82 84 81 75 68 59 54 60 69 72 75 83 87 89 87 83 78 71 61 54 53 64 79 84 84 85 86 87 88 89 91 90 90 89 87 88 90 89 90 90 90 90 88 91
27 28 27 22 22 22 14 10 15 12 8 9 6 5 4 2 4 4 4 9 14 15 14 14 14 14 18 21 17 19 32 39 42 46 49 43 38 47 54 62 65 69 74 75 79 76 85 80 58 66 73 76 82 84 86 81 75 67 59 59 66 74 75 79 87 88 86 83 77 66 54 45 41 46 60 79 87 86 87 87 85 84 87 89 89 90 89 86 86 88 87 88 90 90 90 90 93
33 22 15 15 18 19 16 11 13 11 9 8 4 4 2 3 4 3 7 14 18 17 15 16 16 18 19 19 18 22 34 40 43 46 45 40 41 49 57 66 67 72 74 71 76 77 88 87 69 69 72 76 82 83 83 80 74 66 60 63 70 77 80 84 88 88 84 77 65 52 44 41 42 44 54 74 87 87 87 87 85 84 87 88 88 90 88 85 83 86 86 88 90 90 90 92 93
36 16 10 10 14 16 16 14 11 9 8 6 4 3 2 4 3 3 7 12 15 15 16 16 18 22 23 22 22 28 38 43 44 46 45 43 46 53 63 70 70 71 72 68 70 73 84 86 73 71 75 78 80 80 78 76 71 65 65 68 74 80 83 86 87 86 79 68 56 50 52 57 59 57 56 69 83 87 86 84 85 86 85 85 86 87 87 85 84 85 86 88 91 90 91 93 92
30 14 12 10 12 13 11 11 8 6 6 5 4 2 3 3 3 5 5 7 8 13 16 16 20 24 27 29 27 32 40 42 41 45 48 50 54 58 67 73 70 69 68 66 66 72 84 82 73 74 78 78 76 75 72 69 65 62 66 69 75 81 84 86 85 80 70 60 53 57 68 77 79 75 69 71 78 82 83 80 82 86 83 84 86 86 86 87 86 85 87 90 92 89 88 91 91
22 11 13 13 15 12 9 10 8 6 4 3 3 2 3 2 4 4 4 5 5 9 13 16 20 20 29 36 37 41 44 43 41 48 54 57 61 63 69 72 69 67 65 65 67 75 83 72 68 77 78 77 73 69 67 65 64 64 67 72 78 81 83 84 80 73 62 56 60 72 81 86 86 83 81 80 81 84 86 82 81 85 86 86 88 88 89 89 88 87 89 91 91 89 89 91 91
15 8 10 13 15 12 11 9 7 7 3 3 3 3 3 4 4 4 4 4 4 7 9 16 16 20 34 36 41 47 48 49 43 50 59 63 67 66 67 67 67 67 65 67 68 79 81 61 62 78 77 75 72 70 69 69 72 73 75 78 79 79 81 79 71 62 58 62 74 84 85 86 85 83 84 86 88 88 88 87 84 85 87 87 88 90 91 90 90 90 92 93 91 90 90 92 93
12 8 8 9 11 8 9 8 6 6 3 3 2 3 4 4 4 3 4 3 5 6 8 14 15 23 31 32 46 48 47 53 48 55 63 67 72 68 66 63 64 67 67 69 72 79 68 49 57 73 76 76 76 76 74 75 77 78 80 78 75 77 76 69 61 60 68 79 87 88 87 87 86 83 84 88 90 88 86 88 87 86 89 87 86 90 91 91 90 91 94 95 90 87 88 89 91
10 10 8 6 9 6 7 5 4 4 2 3 2 3 4 4 4 3 4 3 5 7 10 13 16 22 28 41 53 47 49 57 59 65 68 71 73 69 67 62 61 65 69 71 78 80 59 43 49 58 67 72 73 74 74 75 76 77 75 68 65 65 62 59 64 73 82 89 90 92 92 88 86 85 85 88 89 88 87 87 86 86 90 89 87 88 89 87 89 92 94 95 90 87 87 84 84
9 10 10 6 7 8 6 4 4 4 3 3 3 3 4 5 4 4 4 3 3 6 10 12 16 18 30 53 57 52 58 63 67 72 73 74 72 69 67 64 62 64 72 76 80 82 61 41 38 41 47 53 59 61 62 65 68 67 58 51 51 53 58 68 79 85 88 88 89 94 93 89 87 86 86 87 87 85 85 86 85 87 88 87 84 84 87 88 91 95 95 95 94 92 88 83 81
10 8 9 7 7 8 6 5 3 3 3 2 3 3 5 6 5 5 3 4 3 4 9 15 19 17 33 53 59 65 67 66 69 73 75 75 73 72 67 65 64 64 76 80 77 80 69 48 37 36 36 40 45 47 50 52 54 49 42 44 52 61 72 82 87 88 90 91 93 94 91 89 87 85 85 87 85 80 82 85 83 82 80 79 76 72 79 88 91 94 96 95 94 92 84 81 81
10 6 7 8 7 6 5 5 3 3 3 3 4 3 5 6 6 5 3 4 2 4 10 18 19 19 37 51 61 70 68 68 69 73 77 74 72 70 67 66 64 69 80 81 75 79 78 63 50 47 45 42 40 41 44 44 44 43 46 55 63 72 78 83 87 88 91 92 92 89 85 86 85 83 83 85 84 78 80 82 80 76 71 70 70 66 69 83 91 90 90 88 86 85 80 78 79
9 7 6 7 6 5 4 4 2 3 3 3 3 3 6 6 8 6 6 5 3 6 10 18 18 22 44 54 63 69 67 70 68 74 77 71 69 67 67 67 69 78 83 79 76 78 78 72 66 63 55 51 51 51 50 50 52 52 58 66 69 73 74 79 84 87 89 87 84 79 79 80 80 80 81 84 81 77 77 77 77 73 67 63 63 66 68 82 93 89 86 84 80 78 76 75 73
8 7 6 6 5 4 4 3 3 3 3 3 3 4 6 8 11 9 10 7 3 6 9 19 17 27 54 58 61 66 68 71 69 74 74 69 69 65 67 73 79 84 84 79 76 75 76 75 76 72 63 64 68 66 68 74 75 73 75 75 74 73 73 78 84 87 85 81 75 70 71 71 71 74 77 82 78 74 73 73 75 71 62 54 56 67 75 81 85 83 84 82 78 76 74 72 70
6 6 7 7 5 4 4 4 3 3 3 3 4 5 5 9 13 9 11 6 4 9 13 22 20 32 56 54 51 57 66 73 71 74 73 69 67 65 71 80 84 85 83 80 77 74 75 78 82 83 77 77 81 81 86 89 89 91 90 82 80 78 76 80 83 82 75 69 66 62 63 62 63 68 73 78 75 71 71 73 73 66 55 47 53 70 78 76 72 72 72 71 72 74 73 71 68
6 6 8 8 7 5 4 4 3 3 4 4 5 4 4 9 12 12 14 10 15 21 19 26 26 31 41 38 38 50 67 73 72 75 71 67 65 66 75 82 84 87 85 81 82 77 77 79 82 89 88 88 90 91 94 92 91 93 87 83 90 90 85 81 73 68 62 58 61 60 58 58 59 64 70 74 72 71 72 73 69 60 53 50 57 69 73 69 66 65 63 62 63 67 70 68 65
6 8 10 9 7 5 4 3 3 3 4 4 5 4 4 9 12 16 18 17 24 26 24 27 28 32 33 32 38 53 70 73 73 75 69 65 63 66 76 80 83 90 86 83 86 82 81 76 74 88 94 95 93 93 95 91 89 90 87 90 95 90 79 68 59 59 60 62 68 65 66 70 66 66 73 72 69 70 72 71 65 58 58 57 58 63 67 67 66 65 62 60 58 60 62 61 61
7 9 10 9 6 5 4 3 3 3 5 5 5 5 3 8 13 17 18 19 22 25 31 31 30 38 41 44 52 61 73 75 76 74 69 65 62 65 72 74 78 85 83 83 85 80 78 71 70 83 91 96 94 94 96 90 91 94 93 93 89 79 65 59 63 69 74 79 80 78 85 87 79 79 80 75 75 76 71 67 63 63 62 59 57 58 61 64 66 65 62 58 54 54 56 58 58
8 8 8 8 5 4 3 3 4 3 5 5 5 5 4 8 13 18 20 21 22 25 33 32 33 40 43 49 58 65 73 76 77 74 70 64 60 63 66 69 73 76 79 80 77 73 76 75 74 79 87 94 90 92 97 96 95 89 85 86 84 77 70 72 78 82 88 89 82 82 91 92 87 90 88 81 84 83 70 65 68 69 66 62 59 57 59 63 64 65 61 55 51 54 62 62 57
7 7 7 6 4 4 3 4 4 4 6 5 5 4 4 8 12 19 24 25 27 25 27 31 33 37 42 49 56 65 72 75 77 74 70 64 61 63 63 66 69 70 77 78 73 74 80 80 79 84 90 90 87 94 96 92 88 79 77 83 84 80 78 84 83 81 83 80 75 77 81 85 85 86 90 88 89 88 77 73 75 73 70 67 63 62 66 63 61 63 57 53 59 63 66 59 49
7 6 6 5 3 4 4 5 4 4 6 5 5 5 5 6 10 18 20 23 28 22 19 25 28 32 41 49 56 65 71 73 75 73 70 66 63 65 65 65 66 67 76 82 79 79 77 72 78 87 86 80 85 94 85 79 81 78 78 83 85 82 82 84 79 75 76 74 75 79 76 81 82 79 84 85 86 89 85 82 79 76 77 72 67 72 79 70 68 72 62 59 68 65 58 53 47
7 6 5 4 4 5 4 4 4 5 5 5 5 4 5 5 7 13 16 20 25 18 13 17 21 28 38 47 54 61 68 71 72 72 70 67 65 67 67 66 66 65 76 86 81 77 74 74 81 85 84 80 83 87 81 78 82 85 88 88 87 89 88 82 73 73 77 77 80 87 90 93 91 83 78 77 83 86 84 87 84 82 83 76 70 77 84 77 76 80 72 70 71 60 54 53 50
8 6 5 5 5 5 5 4 5 5 5 5 5 4 5 5 6 9 12 16 18 15 15 17 21 27 34 44 53 56 63 70 71 70 69 66 66 66 65 65 66 67 77 82 74 74 77 78 78 80 89 90 86 90 90 87 87 93 95 87 86 91 85 76 74 77 79 80 85 92 94 95 92 85 82 79 82 82 77 82 85 82 82 77 71 75 80 74 74 77 74 72 66 58 55 51 49
8 7 5 6 5 5 6 4 5 5 4 5 5 5 5 5 5 6 9 11 13 15 17 20 24 29 33 44 55 54 56 63 66 66 65 65 65 64 64 63 64 71 78 74 71 76 75 73 71 74 90 93 89 94 95 93 92 92 90 84 87 86 75 71 71 70 73 79 88 94 91 91 91 87 90 84 78 81 75 74 83 84 83 79 70 69 72 67 67 71 71 69 60 55 54 50 48
7 7 6 5 5 5 5 5 5 4 4 5 5 6 5 5 4 5 7 9 13 13 14 16 21 29 36 45 55 55 55 60 60 61 63 64 65 64 64 63 67 78 79 73 77 79 72 73 75 76 87 89 87 91 89 89 87 84 88 88 86 83 80 75 63 57 68 79 86 90 87 88 92 89 92 86 76 81 81 78 85 84 81 81 72 66 69 70 71 70 68 65 58 54 52 50 48
7 8 6 4 5 6 5 5 5 4 4 4 5 6 5 4 4 5 5 8 12 12 11 11 17 27 35 45 52 53 57 61 59 60 62 63 66 67 67 66 72 84 81 78 85 82 74 76 79 80 85 84 81 86 86 86 88 87 91 88 80 82 86 79 66 63 73 84 87 86 84 85 94 96 93 91 84 82 81 84 88 81 78 80 75 71 74 79 80 79 77 68 57 53 51 49 48
7 7 6 4 5 6 6 5 4 4 4 4 5 5 5 4 5 6 4 7 11 10 10 10 17 26 32 42 50 50 55 59 58 59 60 63 67 68 71 73 78 85 78 79 87 82 77 77 78 82 83 80 78 85 88 90 91 85 83 86 85 85 87 85 82 79 80 90 93 92 90 87 95 99 94 93 92 85 81 86 88 78 78 80 75 76 77 77 77 79 83 74 59 51 50 50 47
6 6 6 5 4 6 6 5 5 4 4 4 4 5 5 4 5 6 4 7 10 9 10 11 17 24 30 41 47 48 51 56 58 58 60 63 67 68 73 81 87 84 71 75 86 83 82 81 80 82 84 82 80 84 87 90 90 80 79 86 89 88 88 90 90 89 90 92 93 94 92 87 89 91 86 85 88 87 84 88 88 79 80 79 76 81 80 77 75 74 79 79 69 55 52 53 48
6 5 7 6 4 6 6 5 5 4 4 4 4 5 5 5 6 6 4 8 9 8 12 13 17 22 31 41 45 47 50 54 58 59 63 64 67 71 76 85 90 82 69 75 87 86 87 86 81 81 85 86 82 82 81 83 84 81 81 83 87 89 87 89 89 92 94 90 90 92 89 87 88 85 82 82 86 91 89 90 90 88 88 84 80 84 84 82 79 78 83 82 74 65 57 52 48
6 5 6 7 6 6 5 5 5 4 4 4 4 6 5 5 6 5 6 11 9 9 13 14 17 22 31 41 43 46 51 56 58 60 66 66 69 76 80 85 87 80 72 78 88 87 86 85 83 82 85 84 80 80 77 75 76 77 81 81 84 89 87 87 89 92 93 89 88 91 91 91 91 88 87 87 87 90 92 91 92 94 95 90 84 84 89 89 83 83 87 79 71 74 70 57 49
6 6 6 6 7 6 4 4 4 4 4 3 5 7 6 4 5 5 6 11 11 10 13 13 16 22 31 40 41 45 51 54 59 64 69 71 73 79 82 83 83 80 76 77 83 86 84 83 84 84 82 79 77 79 76 73 74 75 78 78 82 88 88 87 87 90 90 87 87 90 94 94 92 94 94 94 91 90 91 90 91 95 94 89 86 86 88 88 86 85 80 74 70 75 76 66 58
6 7 8 6 6 5 4 4 4 4 4 4 5 7 5 3 4 4 5 9 11 11 12 13 18 22 31 40 40 43 50 54 60 67 72 74 76 78 79 78 78 78 75 74 78 81 83 83 84 84 83 80 80 81 78 75 76 78 79 80 85 87 86 85 84 86 86 87 89 88 93 94 94 97 97 97 95 90 91 89 91 97 91 85 87 85 82 81 87 86 74 70 74 74 72 70 69
7 7 8 7 6 5 4 4 4 4 4 4 5 6 5 3 3 3 6 9 9 10 10 13 20 24 32 40 39 42 51 57 62 68 72 75 77 76 75 74 74 73 71 73 77 78 78 81 82 81 81 81 82 83 81 81 81 81 83 83 85 85 83 82 80 82 83 84 86 87 92 96 95 96 96 98 95 90 92 91 91 92 86 86 89 85 84 84 84 87 83 78 80 78 69 69 76
9 7 7 7 6 5 4 4 4 4 4 4 5 5 4 4 5 5 8 9 8 9 9 12 22 28 33 38 39 44 51 59 63 67 70 74 77 76 73 74 74 72 74 79 80 77 75 78 80 81 83 83 82 83 82 85 86 83 82 83 84 84 80 76 73 75 78 79 82 87 92 95 94 94 94 96 94 88 90 91 91 90 84 87 92 88 86 87 85 88 90 84 81 85 80 74 76
10 9 8 7 6 5 4 4 5 5 4 4 5 5 4 4 7 9 10 9 9 10 8 13 23 29 32 34 38 44 49 56 60 63 69 74 78 77 74 75 76 74 77 82 82 77 75 77 80 83 88 86 82 85 87 88 87 82 80 80 81 79 74 72 68 67 69 71 76 83 89 92 92 93 94 96 95 89 85 86 91 93 87 87 92 90 87 90 90 87 86 85 81 84 87 77 71
8 8 8 7 7 6 5 4 4 5 4 4 5 5 4 4 5 9 12 10 9 11 9 14 23 27 31 32 36 43 48 54 56 60 69 73 77 81 80 78 78 78 77 79 79 77 78 82 85 86 87 86 84 86 87 83 78 75 73 72 72 69 65 68 66 62 63 64 69 77 83 88 90 92 93 93 94 90 85 84 88 89 86 88 93 93 93 92 90 86 85 85 79 77 80 75 71
7 8 8 6 6 7 6 4 4 6 5 6 5 5 5 4 4 6 11 12 10 11 11 15 22 26 30 32 36 43 47 50 50 57 67 70 77 85 87 83 81 81 80 78 78 81 83 81 86 91 85 82 84 82 79 73 67 66 65 62 62 61 59 61 62 61 63 66 69 72 78 84 86 88 90 90 91 88 86 86 87 89 88 88 93 96 97 93 89 91 91 85 78 77 80 81 79
11 9 9 7 6 6 5 5 7 8 8 8 5 5 6 5 5 5 9 13 13 11 13 19 22 23 28 32 38 42 44 45 44 54 63 66 80 89 89 87 83 81 80 79 79 82 86 81 82 90 89 85 85 79 73 67 60 59 59 55 53 52 52 54 55 58 63 71 75 73 77 82 83 84 86 88 89 86 86 88 89 93 91 87 90 96 97 95 90 88 88 84 82 81 81 87 87
14 11 10 8 7 6 5 6 9 9 10 10 7 7 7 6 7 5 8 15 16 12 14 20 20 22 27 32 39 42 45 48 46 53 59 62 80 93 90 88 84 81 79 81 81 80 85 87 84 87 91 92 87 78 70 64 59 57 55 52 49 49 53 56 56 56 58 65 73 73 74 77 77 79 81 84 87 86 86 88 87 89 89 86 88 92 93 94 89 81 81 84 86 85 84 87 88
13 11 10 9 7 6 7 9 10 9 10 10 8 9 9 8 8 6 10 17 18 14 14 18 19 21 27 32 38 43 47 52 51 53 57 59 77 94 94 89 86 84 83 83 83 80 84 89 89 90 93 90 86 82 72 65 67 65 58 55 53 54 58 60 59 60 57 58 64 67 70 73 70 69 72 74 79 84 83 83 83 82 85 86 84 86 87 87 86 78 79 86 88 86 84 83 86
13 12 10 9 7 6 7 10 12 11 12 11 11 14 13 10 10 9 11 17 18 16 16 19 20 22 28 32 38 43 46 51 52 52 53 56 70 87 94 93 89 86 87 87 85 82 82 86 90 92 90 82 82 87 77 69 73 71 64 62 58 55 56 56 57 58 57 54 56 60 64 68 66 64 64 64 70 76 76 74 73 74 80 83 80 79 78 80 83 78 80 89 92 86 79 78 82
12 13 10 9 8 7 8 12 15 16 16 13 12 17 14 10 12 12 13 19 21 20 20 22 22 23 28 33 37 42 46 47 48 48 48 51 62 78 91 95 93 89 84 81 85 84 81 87 92 90 87 76 75 86 79 69 71 70 65 61 54 51 51 51 52 52 52 51 50 53 57 61 63 63 62 61 64 66 66 66 64 63 67 73 76 74 71 74 78 77 80 88 91 87 80 75 75
12 11 9 9 9 9 10 12 15 18 16 13 11 14 13 11 14 13 15 24 23 22 25 24 22 23 27 33 37 42 46 45 47 47 45 49 57 70 88 93 91 91 82 74 82 85 84 91 91 86 87 77 74 86 80 67 67 66 61 54 49 49 49 48 50 51 50 49 50 53 57 60 61 62 62 61 60 60 63 66 67 63 60 62 67 69 70 72 72 73 79 82 83 85 83 77 72
12 9 8 8 9 12 12 12 15 14 14 15 13 12 12 15 17 13 16 23 21 21 26 24 22 23 27 32 37 44 47 44 46 47 44 48 53 61 79 87 85 85 80 74 77 83 89 93 86 83 84 74 72 84 82 71 67 63 57 52 50 50 50 51 53 53 50 49 52 53 56 59 58 59 61 60 59 60 64 68 68 66 61 58 59 62 66 71 72 74 78 78 76 80 82 80 77
10 9 8 7 8 11 12 12 14 12 13 18 16 13 13 18 19 14 16 20 18 19 23 26 26 25 30 35 38 42 44 44 46 46 44 47 52 57 69 77 78 80 80 77 76 82 93 97 94 91 85 77 80 87 84 71 63 61 56 51 50 49 50 51 50 49 50 52 56 56 55 58 60 62 62 60 59 60 63 65 66 66 61 56 56 61 65 68 72 75 77 78 78 80 80 80 79
10 10 9 7 6 8 11 11 11 13 16 19 18 15 12 16 17 15 19 20 18 20 23 27 28 28 32 37 43 43 43 52 54 46 44 48 51 58 66 69 74 83 90 87 83 87 93 96 98 92 80 80 88 92 88 72 61 61 56 50 50 48 48 48 47 49 51 53 56 57 57 57 59 62 63 62 61 60 61 62 64 67 65 61 60 63 65 66 71 74 75 79 81 81 80 81 81
10 12 10 9 9 10 11 12 12 17 20 18 17 16 13 17 20 17 18 20 20 24 27 27 27 34 39 40 45 45 42 53 54 44 46 51 50 56 68 76 81 89 96 96 93 92 90 88 90 84 73 74 79 84 86 76 64 60 56 53 52 50 51 49 49 51 50 50 53 54 56 56 57 60 63 65 65 63 63 62 62 65 65 65 64 63 62 62 66 70 72 75 78 81 81 82 82
11 13 11 13 13 13 14 13 15 19 22 17 13 15 14 20 25 19 14 18 21 21 24 28 30 36 43 44 44 43 41 46 46 44 48 50 51 60 78 89 92 94 97 96 90 85 81 77 78 81 77 71 72 76 78 72 64 59 57 57 56 55 55 50 49 50 49 49 52 52 52 53 56 59 62 65 67 65 64 62 60 62 64 65 62 60 59 59 61 66 69 71 75 79 80 81 82
11 12 13 17 17 18 19 17 17 19 21 17 13 16 17 18 25 24 18 19 24 24 22 24 25 26 31 36 39 41 40 42 44 44 46 54 66 80 92 94 90 88 85 81 77 75 78 76 70 76 80 75 75 76 72 69 64 59 59 59 58 58 53 48 47 47 47 47 49 50 50 49 53 58 62 65 65 63 63 63 62 62 63 64 62 58 56 55 57 62 66 67 69 72 73 78 81
12 13 14 18 20 24 25 20 18 17 18 17 14 19 19 15 22 30 27 23 25 29 28 25 26 28 26 25 30 40 44 45 45 43 46 66 84 90 93 92 89 85 76 73 72 71 78 82 77 78 84 82 79 75 71 71 66 61 62 62 60 59 52 47 46 45 47 46 45 48 47 47 53 59 62 63 61 60 62 65 63 61 61 63 65 64 59 55 53 56 60 61 63 66 68 71 73
11 10 11 17 19 23 24 20 19 17 17 18 18 21 19 18 24 29 29 27 25 28 32 31 32 32 29 25 28 42 54 55 51 51 60 77 86 85 86 87 88 85 80 79 79 79 82 85 83 84 86 85 82 79 79 77 69 63 66 66 61 59 53 47 45 47 49 46 45 47 47 48 55 59 61 61 58 57 60 61 59 60 63 64 64 62 60 57 51 52 56 57 58 61 63 65 66
11 7 10 16 15 16 18 19 21 20 18 20 21 20 19 22 27 26 27 28 25 26 31 32 31 29 31 33 33 40 54 58 56 65 76 80 79 78 78 80 80 80 83 83 78 77 76 69 69 76 81 82 83 84 82 78 71 66 68 68 63 60 54 48 47 50 51 49 49 50 48 50 55 59 60 57 54 53 55 55 55 59 63 63 62 59 56 54 50 49 52 53 52 53 55 55 56
12 11 13 12 10 12 16 19 22 21 21 20 20 20 20 24 27 26 27 29 28 29 32 32 33 34 37 42 41 41 51 58 62 73 81 77 73 74 75 77 78 80 85 85 76 71 69 64 67 75 80 81 84 84 80 75 72 68 68 67 64 61 56 51 52 54 53 52 52 51 51 53 56 58 57 54 52 51 49 48 50 55 57 57 57 55 52 51 49 49 50 51 50 49 49 48 47
12 15 13 9 10 12 15 20 21 21 20 17 18 20 19 22 29 28 27 31 34 35 37 39 41 41 42 44 45 44 50 55 59 70 77 76 75 77 79 80 81 83 85 87 86 84 82 82 81 80 81 82 83 81 77 74 72 69 67 66 64 62 59 57 56 56 56 55 52 51 51 53 55 56 55 53 50 49 47 44 45 48 51 51 50 48 48 47 46 46 46 45 46 45 46 46 47
10 12 10 12 16 16 17 20 21 24 22 17 17 18 16 19 24 25 27 36 41 40 44 49 47 44 44 45 44 45 52 57 59 64 69 73 74 73 75 76 78 83 85 86 90 90 89 89 87 84 82 82 81 79 75 74 72 69 66 65 65 65 64 60 57 57 60 57 51 48 50 52 54 54 52 50 47 44 43 41 41 43 45 46 46 46 45 42 42 42 39 39 40 41 42 43 44
9 10 10 11 16 17 17 18 18 20 22 21 18 17 25 31 26 27 34 40 45 47 48 49 46 44 42 43 43 43 48 56 61 63 63 64 64 63 67 73 78 83 86 87 89 88 88 88 88 86 81 76 75 76 78 79 77 72 68 69 69 68 63 57 56 61 62 57 50 48 50 52 51 49 49 46 42 40 40 40 40 40 41 42 43 44 44 42 41 39 37 38 39 38 38 40 41
10 12 13 13 14 15 17 19 19 16 18 23 19 22 42 48 38 38 41 42 47 49 48 46 42 42 41 40 42 42 42 46 51 56 58 59 63 64 65 73 83 89 91 91 90 89 86 83 82 83 82 78 75 76 79 79 76 73 72 71 69 65 61 54 53 58 60 55 50 48 50 52 50 47 46 44 40 39 40 39 39 37 37 40 43 44 43 42 42 40 40 40 38 36 36 39 41
11 12 13 13 13 15 19 21 21 19 20 21 17 30 51 50 40 42 41 44 49 46 45 45 41 42 42 39 41 43 44 44 43 46 49 52 58 61 61 68 77 84 86 86 87 88 85 81 79 78 79 79 77 77 76 74 73 72 71 71 68 66 63 54 49 54 58 55 49 47 49 51 49 47 45 42 39 40 40 40 39 36 35 37 40 42 42 42 42 43 44 43 39 35 35 39 41
Wind_Speed
5 5 6 8 10 9 9 7 6 5 7 9 9 9 10 10 3 2 4 1 3 3 2 4 1 3 4 4 4 7 11 10 7 2 2 5 10 14 16 20 22 21 21 21 22 23 21 21 22 23 23 24 25 25 26 26 26 25 25 26 27 27 27 25 21 20 19 17 16 15 14 14 13 14 16 18 15 13 13 12 11 11 11 11 12 11 12 11 11 11 11 11 10 10 10 11 10
6 7 8 9 11 9 6 6 7 6 8 9 9 10 8 4 4 9 6 1 2 3 1 2 3 3 3 5 3 2 8 13 11 8 6 10 14 15 20 21 20 21 21 21 22 22 20 20 23 24 24 24 25 25 26 26 26 26 27 28 28 27 25 23 21 19 18 17 16 15 15 14 14 14 16 18 16 14 13 12 11 10 10 11 11 11 11 11 11 11 11 10 10 10 10 11 9
8 8 9 10 10 8 5 5 8 7 8 9 8 11 8 4 6 7 2 1 2 3 2 2 4 3 4 6 2 1 6 12 12 11 7 11 13 14 20 20 20 22 20 21 21 21 20 20 24 24 24 24 25 26 26 27 27 27 28 28 27 25 23 22 20 19 18 17 17 16 16 15 15 15 16 18 17 16 14 13 12 11 10 10 10 10 11 11 11 11 10 10 10 10 11 11 9
7 10 11 9 7 6 6 6 8 9 9 7 6 9 9 6 4 5 6 1 2 2 5 4 4 1 4 3 4 4 7 9 10 10 6 9 13 16 21 21 21 21 20 21 20 20 20 22 26 24 25 25 26 26 27 28 28 28 29 28 27 24 22 21 20 19 18 18 17 17 16 16 15 16 16 17 17 16 15 13 12 11 10 10 10 10 10 10 10 10 10 10 10 10 11 10 9
7 11 12 10 6 3 5 6 7 9 9 7 5 3 5 5 3 7 5 2 2 5 6 4 3 2 2 4 2 2 6 7 10 10 8 10 14 19 22 22 21 20 20 20 20 20 20 25 27 26 26 26 27 27 28 28 28 29 29 28 26 23 21 21 20 19 19 18 18 17 15 15 15 15 16 17 17 15 13 12 13 12 11 10 10 10 10 10 10 10 10 10 10 10 10 10 10
10 11 11 10 6 4 5 7 8 9 10 11 6 3 4 2 4 3 3 4 5 5 7 6 5 6 3 7 5 5 5 4 8 9 10 13 17 21 22 21 19 20 21 20 20 20 22 26 27 27 28 27 27 28 29 29 29 29 28 26 24 22 21 21 21 19 19 18 17 16 15 14 14 16 16 16 15 15 13 13 13 13 12 11 10 10 10 10 11 10 10 10 9 10 10 10 10
11 9 7 8 6 4 7 8 9 9 10 14 7 5 4 3 2 3 4 6 7 7 8 7 6 5 3 6 5 8 8 5 6 10 12 16 20 21 20 19 18 20 21 20 20 20 23 27 27 28 28 28 28 28 29 29 28 27 26 24 22 22 22 22 21 19 18 17 16 15 15 14 14 16 17 16 15 14 14 13 13 13 12 12 11 10 9 9 10 10 10 10 9 10 10 9 8
12 8 4 6 6 5 8 9 9 9 8 11 9 2 4 2 2 4 5 6 6 8 10 8 8 6 4 6 5 7 8 8 8 13 16 20 21 19 18 17 18 19 20 20 20 22 25 27 27 28 28 28 28 28 28 27 26 25 24 23 22 22 22 22 20 19 18 16 16 16 15 14 14 16 17 16 14 13 13 12 11 12 12 11 11 11 10 10 10 11 11 10 9 9 9 8 6
12 9 4 6 7 6 8 9 9 11 7 6 7 0 3 3 6 6 5 6 5 5 10 9 9 8 5 6 7 7 8 9 12 16 18 20 20 19 17 16 17 19 19 20 21 24 26 27 27 27 27 27 27 27 27 26 25 24 23 23 22 23 23 22 20 18 17 15 14 15 14 14 15 16 16 15 14 12 11 11 11 12 11 10 11 11 11 11 11 12 12 11 9 8 7 6 6
9 7 5 6 7 8 8 9 8 11 10 4 3 1 2 4 7 7 7 9 7 6 9 9 9 9 7 9 6 6 7 10 15 16 18 19 19 17 16 16 16 18 19 20 22 24 26 27 27 26 27 27 27 26 26 25 25 25 24 24 23 23 21 20 18 17 16 15 14 15 15 15 16 16 15 14 13 12 11 11 12 12 11 10 10 9 9 9 10 10 11 10 8 7 6 6 5
6 6 6 6 8 9 8 8 8 10 9 3 2 3 0 3 6 8 8 9 7 9 8 7 8 9 10 8 4 7 9 12 15 16 18 18 18 16 15 15 16 18 19 20 21 22 25 27 26 26 26 27 27 26 26 25 25 26 26 25 24 22 20 18 17 17 16 14 14 15 15 15 14 14 14 14 13 11 11 12 12 11 10 9 8 7 7 8 9 8 9 9 9 8 7 6 4
7 7 6 7 8 8 8 9 9 9 7 5 6 5 1 4 6 8 10 10 9 10 8 7 8 8 9 6 4 7 11 13 15 16 17 17 17 16 15 15 16 17 18 20 21 21 23 25 25 26 26 26 26 26 26 26 26 26 27 25 23 21 19 17 17 16 15 14 14 14 14 13 13 13 14 14 12 11 12 12 11 10 9 7 6 6 7 8 9 9 9 8 8 8 7 6 5
7 7 7 7 8 8 9 9 7 4 4 6 6 6 1 6 6 7 8 9 10 11 9 8 8 7 7 6 6 7 11 14 16 16 17 16 15 16 15 14 16 17 18 19 20 21 22 23 24 24 25 26 26 26 26 27 27 27 26 24 22 21 19 18 17 16 15 14 14 14 13 13 12 12 13 13 12 11 11 11 11 9 8 6 5 6 7 8 8 8 9 8 7 8 8 7 7
8 7 7 7 8 10 9 8 7 4 6 8 5 5 2 4 3 6 8 10 12 10 9 8 8 8 7 5 7 7 11 15 17 17 16 16 15 15 15 15 17 18 18 18 19 20 21 21 21 22 24 24 24 25 25 24 24 24 24 23 21 20 19 18 17 16 15 14 13 13 12 12 12 12 13 13 11 11 11 11 11 9 7 6 5 6 7 8 7 8 8 8 7 8 9 7 7
9 6 7 7 8 10 7 8 7 6 4 5 6 2 5 2 3 8 9 12 9 4 7 8 6 6 7 5 6 8 13 17 17 17 16 16 15 15 16 16 17 18 17 17 18 19 19 20 20 20 21 20 20 21 21 22 20 20 20 20 19 18 19 18 17 15 13 13 12 12 12 11 11 12 12 12 11 11 11 11 10 9 7 6 6 7 7 8 7 7 7 7 8 9 9 8 6
8 6 6 7 9 10 7 8 8 6 1 8 6 4 6 4 4 8 5 7 3 7 6 8 2 3 10 8 7 16 18 19 18 18 17 16 16 16 17 16 16 15 16 17 16 17 17 18 18 19 19 18 19 18 18 20 19 19 19 18 17 16 16 15 14 12 12 12 12 12 11 11 11 12 11 12 11 10 10 10 9 8 7 7 8 8 8 8 7 7 7 7 8 9 9 8 7
7 7 7 7 9 10 6 7 7 5 3 6 3 4 6 4 6 5 2 5 4 9 7 6 3 3 8 4 11 23 21 20 19 18 17 16 16 16 16 16 17 14 15 17 14 16 16 15 16 17 18 17 19 17 17 19 18 18 18 17 17 15 13 13 12 10 11 11 11 11 10 10 10 11 11 10 11 10 10 10 10 9 8 8 8 9 9 8 7 6 7 7 8 9 9 8 7
7 6 9 8 9 9 7 6 5 3 2 5 2 2 6 4 7 4 5 9 8 11 7 6 5 7 12 14 18 24 22 20 20 19 17 16 15 15 15 15 16 14 15 15 12 15 15 13 13 15 16 15 16 15 17 18 17 19 18 17 17 15 14 13 12 11 10 9 9 9 9 9 9 9 10 10 10 10 10 10 10 9 8 7 7 9 9 8 7 6 6 6 6 8 10 10 7
8 7 9 8 10 9 6 5 1 1 2 4 3 4 5 2 4 4 7 11 11 13 10 8 8 10 13 17 19 21 21 20 19 19 17 16 15 13 14 14 15 14 14 14 12 13 12 11 12 14 14 12 16 17 18 18 17 20 20 19 17 15 15 13 13 12 10 10 9 7 7 8 8 7 7 8 8 9 9 10 9 9 7 7 7 8 9 9 8 7 6 6 7 7 9 10 8
9 9 9 9 13 10 2 4 4 2 3 1 2 2 4 1 3 5 7 9 12 11 11 10 9 11 13 16 17 19 20 19 18 17 16 15 14 12 12 12 13 14 14 13 11 10 10 11 13 14 15 13 16 20 20 18 18 19 19 20 18 16 16 13 13 12 11 10 9 8 6 5 5 6 7 7 8 7 7 8 8 8 8 7 7 8 10 9 8 8 7 7 7 7 8 8 9
8 10 10 11 12 9 3 3 5 1 2 4 1 3 6 3 3 7 8 8 10 9 11 12 11 12 13 17 16 18 18 17 17 16 15 14 13 12 10 11 11 12 15 11 7 9 11 13 12 12 17 17 17 21 20 18 18 19 20 19 17 17 15 14 12 11 11 10 9 10 9 7 8 10 11 11 11 8 6 6 7 7 8 9 9 9 10 9 9 9 8 8 7 7 7 7 7
8 12 15 15 10 7 5 4 3 1 3 5 4 6 4 2 5 8 9 8 7 7 11 12 15 15 13 17 16 16 16 14 14 14 14 14 13 13 11 11 10 9 13 11 6 11 11 10 11 17 21 23 22 22 21 19 18 19 18 16 17 18 15 14 13 10 10 11 12 12 12 12 12 12 12 12 11 10 8 7 7 9 9 10 9 9 10 10 10 11 11 10 9 6 6 6 6
9 12 14 16 13 7 6 2 3 3 6 8 7 4 2 4 8 7 8 10 7 4 7 3 9 14 13 15 16 15 16 14 14 14 14 14 13 13 12 11 10 8 11 10 6 8 6 10 18 22 23 25 23 21 20 18 17 15 14 15 18 18 14 14 13 8 8 12 13 11 10 10 10 10 10 10 9 9 9 8 10 12 12 11 10 9 10 11 10 11 11 10 8 6 6 7 7
13 12 12 15 14 10 8 3 3 6 8 8 6 3 4 9 7 5 8 7 6 4 7 2 3 12 13 13 15 13 14 14 14 15 15 14 13 13 11 10 9 12 13 10 9 5 12 17 20 21 21 21 19 19 18 16 15 15 15 17 18 18 17 16 14 11 10 11 9 6 7 7 7 7 6 7 8 6 7 9 11 13 12 12 10 8 9 9 9 9 9 8 7 7 7 6 7
14 14 13 12 11 11 11 8 7 8 8 7 7 7 9 11 6 5 9 6 7 4 7 8 7 12 13 12 14 12 12 13 13 14 14 13 13 11 10 9 10 16 15 13 9 7 11 16 18 19 18 18 18 19 17 17 16 15 16 16 17 18 18 17 16 16 12 10 9 6 6 6 6 5 4 5 6 4 5 9 9 11 11 10 7 6 6 5 7 8 6 7 7 6 7 6 7
12 16 16 12 9 10 11 12 12 10 8 8 10 12 11 10 6 6 11 8 8 6 7 10 10 11 11 11 12 12 13 12 12 13 13 13 12 12 11 10 11 14 14 14 8 8 11 13 16 15 14 16 17 17 16 17 16 15 16 15 16 16 15 17 17 16 13 9 9 7 7 7 6 4 3 3 4 4 6 7 7 9 7 5 5 5 6 7 5 7 7 6 7 6 7 6 6
9 13 17 17 12 10 11 13 14 12 10 11 12 13 13 11 6 8 12 9 9 9 9 10 11 11 11 11 11 11 12 12 12 13 13 12 12 13 12 10 11 12 15 17 9 10 13 14 15 14 13 14 14 15 15 15 15 14 14 12 12 11 11 13 12 11 10 7 6 7 8 8 6 3 3 3 3 3 4 4 6 9 7 5 5 5 6 7 5 7 11 7 6 6 6 6 7
10 9 13 18 15 11 12 13 13 11 11 12 11 12 15 13 9 13 12 11 10 10 9 11 11 10 10 11 11 10 10 12 13 12 12 12 11 12 12 12 15 16 19 19 12 11 14 14 15 15 14 13 12 14 14 14 15 13 13 10 8 9 9 10 9 7 6 5 5 6 8 7 5 5 5 5 3 3 5 5 6 9 8 7 7 5 5 5 4 5 10 12 6 4 5 5 6
13 10 10 15 15 14 15 14 13 12 10 11 12 12 15 14 12 17 12 11 12 11 10 11 11 10 11 10 10 10 9 12 12 12 12 11 11 12 13 15 19 20 19 16 13 13 13 13 14 14 14 14 13 12 12 13 14 13 12 10 8 9 9 9 8 7 6 6 6 7 8 6 4 5 6 5 4 3 5 6 7 7 6 6 6 5 4 3 3 4 7 10 7 3 5 6 6
12 11 10 11 12 14 17 16 15 15 11 12 13 10 12 14 16 19 11 10 11 12 11 11 11 9 10 10 9 10 10 11 11 11 12 11 11 13 16 17 18 18 15 13 15 15 14 13 13 14 14 14 14 12 11 11 12 12 12 10 10 9 8 8 7 7 7 7 7 8 8 6 6 6 6 6 5 5 6 7 6 5 4 5 5 4 2 1 3 3 5 7 7 7 6 6 6
10 12 10 9 9 11 15 18 17 16 12 13 13 8 11 14 18 22 15 14 14 12 13 12 10 10 9 10 10 10 11 11 11 12 13 12 12 15 18 17 16 14 12 13 16 16 15 14 13 14 15 14 13 11 10 10 11 11 11 10 9 8 7 7 7 7 8 8 8 8 7 7 8 8 8 8 7 8 8 7 6 4 4 4 3 3 3 3 4 4 5 8 8 9 9 7 5
10 10 9 10 9 10 14 19 18 17 12 14 14 8 9 14 19 23 17 16 16 14 14 13 11 10 10 10 10 10 10 10 12 13 14 14 15 16 17 17 16 14 13 13 15 16 15 14 14 15 16 14 12 11 10 10 10 10 9 9 9 7 6 6 7 7 7 8 8 8 7 7 7 7 8 8 8 8 8 7 6 5 3 3 3 3 5 6 5 5 6 8 8 9 8 6 4
9 9 10 11 11 11 11 15 17 17 13 15 15 10 9 14 16 20 18 15 17 15 15 13 11 10 10 9 10 10 10 10 11 13 15 15 16 16 15 17 17 15 14 14 14 15 14 14 14 15 16 14 12 10 9 9 9 10 9 8 8 7 6 6 6 6 6 6 6 7 6 6 6 6 6 7 8 8 8 8 6 6 4 4 4 4 4 5 6 5 4 6 6 7 8 4 3
8 9 10 11 13 13 10 12 15 17 16 16 16 13 13 9 4 13 15 14 16 15 14 13 11 9 10 10 10 10 10 10 11 13 16 16 17 17 16 17 18 15 14 14 13 13 13 12 13 14 15 14 12 10 9 9 8 9 9 8 8 7 6 5 5 5 5 5 5 6 6 6 6 5 6 6 6 7 7 7 8 8 6 6 5 4 3 5 6 4 4 5 5 5 6 5 4
9 9 9 10 13 12 13 11 13 18 18 15 15 15 17 10 6 10 12 13 14 14 13 12 12 11 11 11 11 11 10 10 10 12 17 17 18 18 17 17 17 15 14 15 13 13 12 11 12 15 15 13 12 11 10 9 9 9 9 9 9 8 6 5 4 4 4 4 5 5 6 6 6 5 5 5 6 6 5 7 9 10 8 7 6 5 5 5 6 6 6 6 6 6 6 6 7
12 11 10 11 11 10 14 11 11 15 16 14 14 14 16 16 11 12 12 12 13 13 13 11 11 12 11 11 11 11 11 10 10 13 17 18 18 17 16 16 16 14 14 15 13 13 13 12 12 15 16 14 12 12 11 11 11 10 10 10 9 7 6 5 4 3 3 3 4 5 5 5 6 7 6 6 5 5 5 6 7 8 8 9 8 7 6 5 6 6 6 6 8 8 6 7 9
9 10 10 12 11 8 14 12 10 10 11 13 16 14 14 17 14 12 13 13 13 14 13 12 12 12 11 12 12 12 11 10 11 15 17 18 17 16 14 14 14 14 13 15 14 13 14 16 15 14 16 15 14 14 13 12 12 11 11 10 9 8 6 6 5 4 3 3 3 4 4 5 6 7 6 6 5 4 5 7 6 6 7 8 8 7 7 6 6 6 5 6 8 7 6 10 11
8 8 7 10 10 8 14 12 10 9 8 9 14 15 15 15 14 13 14 13 13 14 14 13 14 13 11 12 13 12 10 9 11 13 16 18 18 16 14 11 14 15 14 16 17 14 16 18 16 15 15 15 14 14 13 13 12 12 11 10 10 9 8 7 6 5 4 4 4 3 4 4 5 5 6 6 6 4 5 7 7 7 6 6 7 7 7 7 6 6 6 6 7 7 8 10 9
9 8 7 8 8 9 11 9 8 8 7 8 13 14 13 13 14 14 13 12 11 13 14 14 15 13 12 13 12 12 11 10 11 12 14 18 20 17 13 11 14 16 16 18 17 16 17 17 16 15 15 15 14 14 14 13 12 12 11 10 10 10 9 7 7 7 6 5 4 4 3 4 4 4 4 5 6 6 6 7 7 7 7 7 7 8 8 8 7 8 9 8 6 6 8 9 7
9 9 8 8 8 10 9 8 8 8 7 10 11 10 10 11 13 12 10 11 11 12 14 14 14 13 12 13 12 12 12 11 12 12 13 16 21 19 13 12 16 17 17 18 18 18 17 18 19 18 16 17 17 15 13 13 11 10 10 10 10 10 10 9 9 8 7 6 5 4 4 4 3 3 3 3 5 6 6 6 6 6 6 6 6 7 7 7 8 10 11 9 7 8 9 9 7
10 12 11 9 11 12 6 5 9 9 8 11 10 7 8 10 11 11 9 11 12 12 14 14 14 13 11 12 12 12 12 12 12 13 14 14 18 22 17 15 15 16 19 19 19 19 18 18 20 19 18 19 18 14 12 14 12 11 12 11 11 11 11 10 10 9 8 7 6 5 5 4 3 3 3 3 4 5 5 5 5 5 5 5 5 6 6 7 9 11 11 10 9 10 10 7 5
10 13 14 14 12 11 7 6 7 7 8 11 11 8 8 10 13 13 10 11 12 12 13 15 15 14 12 12 12 12 11 11 12 13 13 13 16 23 22 17 13 14 20 20 17 19 19 18 18 17 18 19 17 13 11 14 13 12 13 12 12 12 11 10 10 9 8 7 7 6 5 4 4 4 3 4 4 4 4 3 3 3 4 4 4 5 5 7 9 10 11 11 11 9 7 6 5
8 11 16 17 14 10 10 9 9 8 5 8 13 10 7 9 13 14 13 12 14 13 13 15 15 13 12 11 11 11 10 11 11 12 13 13 15 20 23 22 20 18 20 18 14 16 18 18 17 17 17 17 17 13 12 14 13 13 13 12 12 12 11 11 10 9 8 7 7 7 6 5 5 4 4 4 4 3 3 3 3 2 3 4 4 4 5 6 6 7 7 8 8 7 5 4 4
8 8 15 17 14 10 9 9 8 8 3 4 12 11 8 6 9 13 14 13 16 16 14 14 13 13 12 11 11 10 9 10 10 12 13 13 15 16 21 26 28 27 25 20 16 17 19 18 17 17 16 16 16 14 14 15 14 14 13 12 12 11 12 12 11 9 8 8 8 7 7 6 5 5 4 3 3 3 3 2 3 3 3 4 4 4 4 5 4 4 4 4 5 5 5 4 4
8 6 10 14 15 11 10 10 9 8 6 5 10 11 8 6 7 11 14 14 16 17 14 12 11 12 11 10 10 9 7 7 10 11 11 12 13 14 19 23 26 27 27 26 20 15 17 16 13 15 14 13 14 15 16 16 15 14 13 12 12 12 13 12 11 10 9 9 8 7 7 7 6 5 4 3 3 3 3 2 3 4 4 4 5 5 5 6 5 5 3 2 3 2 2 2 4
5 5 9 11 13 13 10 9 8 7 8 8 9 10 8 5 7 10 11 12 13 11 10 10 10 8 7 8 8 7 7 8 11 10 8 10 12 13 16 18 18 17 20 22 16 9 17 17 12 13 13 14 17 14 12 13 14 13 11 11 12 13 13 12 11 10 9 9 8 7 7 6 6 5 5 4 3 3 3 3 3 4 5 5 5 5 5 6 6 6 5 4 4 3 3 2 1
4 5 9 9 10 10 7 7 7 6 7 9 10 11 9 5 6 8 9 10 10 10 8 8 9 5 3 6 7 9 10 9 9 7 6 9 11 12 11 10 10 12 15 15 12 14 21 21 18 19 19 20 21 17 13 11 11 11 10 11 13 13 12 11 11 10 9 9 8 7 6 6 6 6 6 5 4 4 4 4 3 4 5 5 5 5 5 6 6 6 6 5 5 4 4 4 4
6 7 9 8 7 7 7 7 7 7 7 9 10 11 10 6 3 6 10 10 8 9 10 10 11 12 10 8 8 10 11 9 8 6 6 9 7 4 6 9 11 16 19 18 17 19 22 22 22 23 22 23 21 21 20 14 11 11 10 11 12 12 12 11 11 10 10 9 8 7 6 6 5 6 6 5 5 5 4 4 3 3 4 5 5 5 5 6 6 7 7 6 6 6 5 5 5
8 9 9 8 7 6 7 7 7 8 6 6 8 9 9 6 2 2 4 10 7 3 7 10 10 13 14 12 10 10 9 8 6 5 6 5 3 11 18 18 16 21 25 22 20 20 23 25 25 24 24 24 23 22 21 16 12 11 12 12 12 12 11 11 10 10 9 8 7 7 6 6 6 6 6 5 5 5 4 4 3 3 5 5 6 6 6 6 7 7 8 7 8 8 7 7 8
10 10 8 7 6 6 8 7 7 8 6 5 6 6 7 6 6 6 4 7 7 6 7 7 6 6 7 9 10 8 6 7 7 7 5 4 11 16 21 24 25 26 26 24 22 22 23 21 19 21 23 24 23 23 20 16 14 13 12 12 12 12 11 11 10 9 8 7 6 7 6 5 6 5 6 6 5 5 5 5 4 5 6 7 7 8 7 7 7 8 9 9 9 9 9 9 9
10 10 8 7 6 6 6 6 5 6 5 8 8 5 6 6 6 9 8 9 9 6 5 5 6 5 6 9 12 11 9 9 7 6 6 11 16 17 19 20 19 20 20 18 18 19 19 15 10 12 19 22 22 20 18 14 13 14 14 12 12 12 11 10 10 9 8 7 6 6 5 5 6 6 6 6 6 6 6 6 6 6 7 8 8 8 8 8 8 9 10 10 10 9 10 10 10
9 9 8 7 7 6 4 2 1 2 3 5 7 4 2 3 5 8 8 10 12 9 7 7 8 9 9 8 12 12 9 7 6 8 12 15 18 19 19 18 16 16 15 14 15 17 19 20 16 11 14 19 18 16 16 14 13 14 14 13 12 11 10 10 9 9 8 7 6 6 5 6 7 7 7 6 7 7 8 8 7 7 8 8 8 8 8 8 8 9 10 10 10 9 10 9 9
5 7 9 7 6 6 5 4 2 2 5 4 5 5 4 6 5 6 6 7 11 12 10 9 8 9 10 9 10 10 9 9 9 11 13 16 18 18 17 15 13 12 12 13 16 17 15 16 16 14 11 13 14 14 14 13 11 12 13 13 12 11 10 9 9 9 9 8 7 6 6 7 8 8 8 7 7 7 8 8 8 8 8 8 8 8 8 9 9 9 9 10 9 9 10 10 9
5 6 8 6 5 5 5 4 3 5 7 5 6 8 7 6 5 8 11 9 9 9 9 8 7 8 10 10 11 11 11 11 10 13 15 15 15 15 13 12 10 10 12 14 13 12 11 8 10 13 10 8 10 10 11 11 10 11 12 12 11 10 10 9 10 10 9 8 7 6 7 8 8 9 9 8 8 8 8 7 7 7 8 8 8 8 8 8 9 9 9 9 9 9 9 9 9
10 6 5 6 6 6 6 5 4 6 7 6 7 8 7 5 5 10 13 10 10 9 9 9 8 8 9 10 11 13 13 12 11 12 12 12 13 13 13 12 11 10 10 11 11 11 10 7 8 12 11 9 8 8 8 8 9 9 10 11 10 10 10 10 11 11 9 9 8 7 7 8 9 9 9 9 9 8 8 7 7 7 8 8 8 8 8 8 8 9 9 9 9 8 9 9 9
11 8 6 7 5 5 5 4 5 6 6 5 7 8 3 2 2 7 9 10 11 9 9 10 9 9 8 8 9 10 11 11 11 11 10 10 11 11 12 12 11 10 7 7 9 12 11 7 6 10 11 10 9 8 8 8 8 8 9 11 11 10 11 12 12 11 10 9 9 8 8 9 10 10 10 10 9 9 8 8 8 8 8 9 9 8 8 8 9 9 9 9 9 9 9 9 8
10 9 8 7 5 4 5 4 5 7 6 5 7 6 3 5 6 7 8 9 10 10 9 9 9 10 9 8 8 8 8 9 10 11 10 10 11 11 12 11 9 8 7 6 6 11 13 9 6 8 10 9 8 8 8 8 7 8 9 11 12 11 12 13 12 11 10 9 9 9 9 10 10 10 10 10 9 9 9 8 8 9 9 9 9 9 9 9 9 9 9 9 9 9 9 9 8
8 9 10 9 8 6 6 6 6 7 6 5 6 3 4 3 4 4 6 7 9 10 10 10 10 11 9 9 9 9 9 9 9 10 9 9 11 13 13 11 9 8 7 6 6 9 12 10 7 8 10 10 8 8 9 8 8 8 9 11 12 12 13 12 11 11 11 10 10 10 10 10 10 10 10 10 10 10 9 9 9 9 9 9 10 9 9 9 9 10 9 9 8 9 9 9 8
Wind_Direction
204 224 227 222 228 225 209 216 230 204 228 248 241 245 241 229 211 256 227 162 278 183 201 277 207 273 277 298 320 49 36 23 21 17 92 106 128 125 126 130 132 133 135 138 143 152 154 156 157 157 162 162 163 164 163 162 162 162 160 157 155 153 153 152 150 149 148 147 145 144 144 142 142 140 140 138 137 138 137 136 136 135 137 132 127 129 129 127 124 121 117 114 113 111 112 114 109
208 217 220 223 225 229 217 203 244 221 210 243 237 246 247 185 198 243 244 312 345 84 149 242 187 231 288 303 297 96 65 53 57 76 93 125 125 121 128 131 134 132 135 140 141 147 148 154 156 158 163 162 162 160 160 159 159 159 157 156 156 155 154 153 152 152 151 149 147 146 145 142 142 139 140 140 139 140 137 135 134 135 136 133 131 133 130 130 130 126 125 121 117 116 117 118 112
219 213 203 210 218 233 241 206 240 242 218 233 231 235 226 169 222 218 128 24 56 67 228 181 174 190 223 226 208 152 83 68 75 90 111 140 128 126 133 133 135 133 137 142 143 145 146 154 157 159 163 163 161 159 159 158 158 157 157 158 157 154 154 155 155 154 152 149 148 147 143 141 140 139 142 143 143 142 138 136 138 140 138 136 137 135 133 134 135 131 129 125 121 120 120 118 112
221 217 203 205 210 220 239 224 229 247 241 235 235 225 201 203 228 132 108 54 93 176 223 191 164 179 278 210 123 81 88 79 89 104 122 129 126 135 135 134 137 137 141 147 147 147 149 156 158 159 161 161 159 158 158 158 158 156 157 158 156 155 155 156 155 155 152 149 149 146 144 141 137 135 139 143 145 144 142 144 141 139 137 138 139 136 136 138 138 135 132 128 124 125 124 119 114
222 222 219 227 224 221 236 234 229 241 248 250 250 201 172 194 118 104 129 156 204 213 210 212 162 162 319 45 64 90 100 104 103 108 119 115 127 139 139 139 140 141 145 151 149 148 154 157 158 160 160 159 158 157 157 158 157 156 157 158 158 159 157 155 155 155 152 152 152 148 144 141 138 136 138 143 145 144 143 143 137 135 136 138 139 139 141 142 140 138 135 132 131 132 128 122 116
222 215 221 239 259 297 252 234 230 234 244 259 280 65 97 112 88 109 158 172 208 226 213 211 181 178 140 70 42 47 76 111 113 111 124 132 138 142 146 147 145 144 147 150 149 149 155 159 160 160 160 160 159 158 158 158 157 158 159 160 161 161 159 156 156 156 155 155 153 149 147 147 146 143 143 145 145 143 140 137 137 139 141 140 140 141 142 143 143 142 141 138 135 135 132 125 118
212 202 205 228 250 267 244 239 233 235 233 246 274 59 81 65 85 197 204 205 200 210 219 212 183 171 134 121 89 70 67 56 114 130 134 139 142 146 151 149 145 145 147 150 148 150 156 161 161 161 163 162 161 160 160 160 160 161 161 162 162 162 160 157 157 157 156 156 154 152 152 152 149 147 145 145 146 142 140 139 140 142 142 142 142 139 140 142 145 145 144 143 141 140 138 134 127
218 212 196 218 230 212 231 243 237 248 220 224 255 38 57 7 295 238 219 217 201 191 199 201 192 180 175 162 111 95 84 60 103 127 134 140 144 151 155 151 148 146 147 149 146 151 159 163 162 163 164 164 163 163 163 164 164 163 164 164 163 162 159 157 156 156 156 157 157 154 153 149 146 149 145 145 147 141 142 145 143 142 138 140 142 141 144 145 150 154 152 149 150 153 152 148 139
222 221 209 222 237 217 227 241 235 249 227 204 241 115 51 269 266 264 241 228 225 205 195 188 197 198 174 128 100 108 99 88 110 124 138 144 148 153 155 155 151 148 146 146 146 152 160 163 164 165 164 164 165 166 166 166 166 165 164 163 161 159 157 156 155 157 158 157 155 151 149 144 144 147 147 149 148 142 146 147 142 137 132 136 141 146 152 155 160 164 160 154 153 161 164 157 149
213 216 226 223 241 234 224 236 232 242 236 213 234 164 30 254 253 258 249 238 220 220 208 178 197 203 142 115 115 110 103 115 123 132 142 144 152 155 154 154 151 149 144 143 145 151 159 163 166 166 165 165 165 166 166 166 165 163 162 160 158 157 157 156 156 157 155 155 151 148 146 142 143 145 149 155 147 139 138 134 130 127 127 129 134 144 148 150 157 157 155 153 152 158 156 153 160
213 208 236 235 236 239 229 233 227 232 228 204 219 198 254 253 251 250 245 248 227 221 205 163 204 194 125 116 118 104 118 136 135 137 142 146 155 154 153 152 152 150 141 142 145 150 159 163 165 166 165 165 165 165 165 164 163 161 160 158 157 157 157 155 154 153 150 152 148 146 144 141 142 141 145 150 141 134 131 127 127 129 130 128 131 143 145 147 152 153 155 157 158 159 152 153 174
225 205 224 238 235 240 239 238 231 225 192 179 216 174 149 247 243 244 234 235 230 223 186 153 214 190 135 132 117 126 145 145 139 138 143 151 154 154 153 151 152 147 139 142 146 151 157 162 165 167 167 166 166 166 165 164 162 161 160 158 157 157 155 154 153 151 150 151 149 146 144 143 141 137 141 145 141 138 136 134 134 136 136 137 142 156 166 163 158 164 173 172 171 174 169 170 188
234 223 222 235 245 249 246 248 247 245 189 204 204 129 154 246 236 247 246 235 225 222 184 171 216 179 135 136 129 147 155 145 142 143 146 152 154 154 151 148 146 139 140 145 149 152 156 162 166 168 170 169 168 167 166 164 162 161 160 159 158 157 156 156 155 154 154 153 152 149 146 145 142 140 142 146 148 148 147 144 141 142 143 148 157 166 175 169 163 172 181 181 183 192 189 185 190
231 240 242 242 248 252 256 257 246 250 244 216 161 109 225 247 263 253 256 243 224 219 171 165 214 167 121 131 145 156 154 146 147 148 148 152 155 153 147 142 138 138 144 148 152 155 158 162 164 170 173 171 170 169 166 163 160 161 159 157 157 158 157 157 157 157 157 155 153 152 151 150 148 147 147 150 156 154 153 152 149 149 150 156 161 163 172 172 175 183 188 191 191 194 189 186 191
232 248 256 255 250 250 249 252 255 259 242 150 126 167 234 204 262 245 241 244 218 177 139 146 228 187 156 187 170 162 155 148 149 151 152 156 156 152 145 138 137 142 147 148 154 159 161 161 162 168 170 171 172 169 165 160 156 156 152 152 157 157 157 156 157 159 158 157 157 155 155 156 156 155 154 156 160 157 155 157 154 153 157 158 154 160 169 170 175 180 185 193 194 190 185 184 188
237 259 257 252 251 249 232 230 250 261 137 105 128 201 229 182 222 250 248 257 156 127 167 161 213 177 177 209 161 148 154 153 152 153 156 159 157 151 145 142 139 141 152 152 155 164 164 166 168 169 169 171 171 166 161 156 152 152 149 150 152 149 152 153 152 156 156 157 155 153 154 155 160 162 162 162 162 161 159 160 158 156 156 152 149 158 164 162 162 163 165 170 174 182 184 181 180
229 248 250 242 242 246 239 220 226 247 115 113 151 186 238 190 183 255 256 251 179 155 187 159 148 119 149 162 132 140 147 154 153 153 158 160 160 154 150 149 142 142 159 157 159 166 166 176 177 169 168 169 171 164 149 151 150 146 145 146 144 139 144 144 140 145 146 148 145 144 148 150 159 164 165 166 165 167 168 166 164 163 158 151 150 158 164 162 160 153 150 146 152 167 172 168 167
222 225 238 237 236 239 245 232 214 259 90 108 105 165 250 227 166 202 206 212 191 172 173 135 131 93 105 108 123 137 143 152 153 154 159 164 166 159 157 158 153 151 159 162 172 172 172 191 182 168 177 171 163 154 139 145 141 134 139 142 140 136 139 138 136 138 134 132 135 142 149 154 164 165 162 167 167 170 174 172 171 170 164 157 155 160 168 174 174 165 153 144 143 151 157 158 155
225 224 232 235 241 242 255 281 291 307 23 83 110 182 249 282 154 178 210 195 177 174 167 156 139 114 120 121 131 143 147 154 154 156 162 169 169 163 162 162 161 158 157 167 175 175 180 191 183 174 177 155 136 137 135 133 128 134 142 140 136 134 139 142 142 141 132 130 143 158 166 169 175 164 160 168 165 168 174 174 175 173 171 171 169 167 173 182 185 181 171 148 137 145 160 172 173
224 230 235 232 242 254 282 316 310 354 352 322 125 185 236 263 162 181 209 185 178 179 159 164 150 137 144 134 143 151 150 155 154 160 168 171 170 163 162 162 166 161 156 163 163 169 182 191 193 175 160 149 132 129 131 133 136 142 143 139 137 139 143 146 148 147 144 148 166 181 177 181 197 182 172 168 159 164 172 175 181 184 186 185 185 182 184 187 183 186 181 156 151 174 190 194 190
219 226 241 239 240 263 265 232 255 287 316 287 15 227 220 185 168 188 207 190 184 183 165 170 154 156 160 144 150 153 153 156 157 167 170 174 176 164 166 172 170 159 149 144 148 164 184 205 199 152 143 154 143 129 135 144 144 143 143 142 141 144 147 149 154 160 161 166 181 185 176 179 202 196 183 173 161 159 169 182 193 199 200 197 194 191 194 192 183 187 186 178 189 203 200 198 194
224 227 239 251 258 282 272 218 217 210 249 259 242 236 226 150 194 198 202 197 197 178 167 170 151 159 170 149 150 155 157 159 161 171 173 178 177 166 173 172 163 156 135 112 138 175 180 190 149 120 126 136 136 135 138 137 135 142 145 145 143 143 146 153 162 168 170 181 189 187 182 183 193 192 183 178 167 160 167 191 209 210 210 208 203 199 201 200 190 190 195 202 206 200 190 192 194
228 235 232 249 262 270 267 210 149 221 235 231 227 253 316 236 220 201 203 195 190 145 126 131 128 148 167 150 149 158 160 163 168 174 178 179 173 172 174 165 159 140 110 105 163 183 127 100 110 118 125 127 132 138 136 130 134 144 145 149 146 139 146 161 167 174 183 192 195 191 187 186 188 186 181 177 175 170 169 196 221 221 216 207 206 215 209 205 203 197 201 210 201 192 192 187 191
224 242 232 237 243 240 250 242 188 222 233 236 244 279 254 238 230 190 219 198 161 131 118 123 127 150 163 149 148 161 163 168 175 175 178 177 173 174 167 162 149 109 107 141 172 146 93 92 106 119 125 127 132 134 131 130 134 137 142 150 147 144 156 164 168 185 200 200 201 198 192 191 187 187 180 173 189 191 173 195 225 237 238 221 213 227 218 211 222 212 201 207 196 186 192 189 189
221 241 245 238 232 231 242 244 236 227 226 234 242 252 234 233 250 208 223 192 148 171 155 178 195 159 155 152 154 160 165 172 173 174 175 172 169 163 155 154 127 101 121 158 159 137 117 106 108 113 119 126 130 131 128 131 134 138 143 150 154 154 158 163 176 193 199 195 196 204 204 201 194 189 183 181 207 219 174 184 218 237 243 243 235 236 240 247 241 223 208 203 199 187 183 191 190
216 234 245 244 232 230 237 238 237 233 226 227 227 236 233 228 256 250 230 192 144 182 183 187 193 162 153 158 161 159 165 174 173 174 173 166 158 149 149 143 116 106 138 163 154 144 134 117 116 117 120 123 127 131 131 135 137 140 144 152 161 156 154 165 181 192 192 188 190 199 210 212 202 181 180 190 218 225 189 187 221 230 223 239 245 238 265 314 306 249 252 213 196 191 176 184 189
223 234 241 241 237 228 231 233 231 231 225 224 227 228 230 221 219 236 224 177 151 187 191 190 186 167 161 159 161 165 166 175 176 172 167 162 154 150 148 130 115 127 162 177 163 135 130 124 128 127 125 125 127 131 133 137 135 141 150 153 157 154 156 167 178 186 188 188 184 188 208 215 201 184 195 196 212 227 214 208 231 236 227 220 237 250 265 302 313 274 281 264 213 188 169 182 190
246 251 246 240 237 234 231 233 228 230 224 217 228 233 228 215 206 233 218 164 171 196 188 192 189 171 163 158 162 167 168 174 176 171 167 161 153 154 146 123 124 148 177 181 160 142 138 132 132 129 127 127 128 131 135 137 133 145 160 157 156 158 162 166 171 178 184 193 189 195 216 218 199 207 217 203 212 228 225 229 235 239 240 229 233 246 251 272 281 267 286 292 277 198 175 188 190
245 248 254 241 233 236 231 231 227 226 224 208 217 233 229 211 209 233 216 158 181 197 194 197 191 178 161 159 166 164 166 172 174 171 165 158 150 150 142 130 137 158 183 178 156 154 147 135 134 132 132 132 134 138 141 141 139 150 162 165 164 159 163 169 170 174 180 191 198 211 223 223 209 225 231 213 218 244 231 228 236 242 241 235 232 240 253 274 271 265 286 294 295 249 196 188 189
243 238 245 246 233 233 224 222 224 222 221 207 210 224 225 212 213 228 205 161 197 199 199 204 191 182 161 162 174 164 164 171 174 170 158 152 151 147 143 145 151 163 181 174 161 162 152 142 140 138 139 139 140 145 146 147 148 154 159 162 162 161 169 175 174 176 180 187 200 215 217 213 211 220 229 221 221 235 227 216 227 237 237 233 226 239 264 302 275 267 273 267 263 276 261 208 189
235 234 232 241 240 233 214 208 214 216 211 202 208 225 230 216 206 216 201 176 203 206 201 208 196 183 166 169 179 167 166 171 168 161 151 147 150 147 148 157 167 171 179 176 170 166 155 149 148 143 144 144 146 151 154 153 152 155 158 157 157 162 172 179 181 182 187 192 204 217 213 205 208 210 210 212 219 224 222 218 210 205 232 237 221 238 220 213 243 231 248 247 240 275 285 252 211
222 232 227 225 234 246 217 198 202 210 198 189 207 230 238 237 213 201 192 180 194 208 205 205 199 185 172 175 180 170 163 164 158 152 148 146 147 148 151 163 174 180 184 181 172 164 153 150 151 147 146 148 153 158 158 153 152 153 155 155 155 160 171 185 190 188 193 198 206 217 213 206 209 213 211 210 218 220 222 226 195 169 208 224 193 213 200 199 224 228 246 243 236 266 267 260 274
213 222 232 223 216 243 226 183 188 206 198 187 208 230 230 251 232 182 170 186 195 206 207 200 200 187 175 180 181 170 159 159 156 150 154 154 150 153 160 167 175 184 185 180 172 164 158 152 149 147 147 152 156 162 160 152 151 149 148 151 152 156 167 180 185 183 188 192 199 209 203 199 205 212 217 211 215 216 211 211 184 154 178 184 164 185 191 194 214 223 236 229 232 260 243 224 295
213 213 230 234 219 231 222 175 178 203 211 200 202 225 236 245 212 153 164 194 203 209 210 199 196 189 184 186 178 170 165 165 162 160 166 164 157 160 168 172 178 184 183 180 179 175 168 156 150 147 149 156 160 164 164 153 150 148 145 146 144 150 161 166 170 172 177 181 186 194 185 182 191 200 211 205 210 213 196 179 154 140 161 160 136 152 179 186 194 204 220 219 212 245 253 219 212
214 213 220 235 226 223 224 200 178 196 212 210 197 212 238 234 149 159 185 199 206 212 212 201 192 191 193 190 180 174 172 171 171 170 171 167 161 163 169 176 180 184 185 183 178 177 172 157 154 152 148 157 165 163 161 156 154 149 143 143 142 148 156 155 160 165 169 179 178 181 176 172 177 181 189 194 200 200 174 150 138 137 156 152 133 143 165 174 175 193 211 213 211 225 256 238 212
223 217 216 230 228 213 231 224 168 188 205 206 210 208 224 234 204 178 187 199 208 213 211 203 194 192 196 195 183 174 175 174 177 175 171 168 160 158 170 177 175 179 187 184 174 173 168 154 153 154 152 158 168 166 163 162 159 151 148 147 145 147 152 143 145 154 151 160 162 167 172 170 171 166 168 179 184 181 154 139 138 142 152 151 146 147 156 170 169 185 201 203 213 220 238 235 220
263 232 217 226 232 206 224 222 155 183 214 201 217 220 214 228 225 193 183 195 207 211 210 203 198 195 196 195 181 176 179 175 177 174 171 169 152 153 180 178 163 172 183 181 176 173 168 162 157 153 157 167 175 170 166 168 162 154 155 154 150 150 151 147 144 143 135 134 145 158 163 162 163 159 160 164 162 167 151 135 132 138 148 152 150 148 153 166 166 173 190 195 204 210 230 236 227
274 257 236 223 233 217 211 202 149 177 222 209 213 224 221 219 227 216 189 188 205 211 207 203 204 199 193 192 180 178 178 172 178 172 175 174 146 151 191 176 158 173 176 176 178 172 166 164 161 157 164 177 182 173 166 168 162 157 158 154 152 149 149 157 153 145 139 133 137 148 150 149 154 155 156 154 148 151 138 126 131 140 150 155 149 150 154 159 167 180 186 185 194 206 226 236 232
247 254 254 229 226 226 203 168 142 176 206 226 216 221 227 216 226 226 189 184 210 213 206 206 209 203 192 189 178 175 176 173 181 176 183 177 144 150 197 183 166 178 175 176 179 174 164 159 163 164 169 180 181 175 170 165 158 154 154 150 147 142 138 140 136 137 143 136 128 126 130 135 136 139 144 146 140 137 133 128 134 142 148 158 161 161 161 161 166 184 193 184 184 212 231 239 236
239 241 242 236 219 220 207 164 181 197 200 239 234 219 227 221 223 223 188 189 210 211 209 208 210 209 194 185 178 177 178 175 183 186 191 180 149 152 194 190 172 178 182 180 176 176 170 161 168 170 172 178 176 179 172 155 150 146 142 140 133 127 124 124 125 131 136 135 132 124 118 116 115 119 124 126 119 118 123 125 127 132 140 158 168 164 168 172 171 188 201 187 181 215 226 227 226
226 234 238 240 223 219 218 172 194 201 201 239 251 230 225 215 209 214 201 198 205 205 207 207 207 207 192 181 180 181 185 182 187 193 193 187 159 156 181 193 180 184 192 185 173 175 175 167 169 169 173 173 168 181 172 144 145 144 139 137 128 126 131 135 136 135 136 137 136 128 122 115 109 106 105 105 96 97 103 109 122 135 139 153 162 157 165 168 171 193 203 191 198 221 218 209 210
218 223 236 249 242 222 195 157 187 211 204 213 224 236 230 202 202 213 202 196 206 204 204 208 205 200 189 182 184 186 190 188 193 199 193 193 176 159 164 174 183 202 205 194 174 170 172 169 167 162 167 168 164 182 173 145 150 151 148 150 144 143 145 145 143 140 141 138 131 128 123 115 108 100 95 94 84 81 88 95 116 140 148 160 164 155 155 157 170 194 203 198 208 223 215 204 199
233 205 217 244 257 239 211 186 196 227 224 192 201 231 245 198 201 209 193 193 207 204 203 206 203 199 190 183 184 183 191 194 196 202 195 196 191 165 152 160 178 199 207 200 179 169 171 169 166 158 162 165 163 182 179 154 156 159 158 158 152 151 145 139 140 138 135 129 128 130 122 116 113 108 102 89 77 68 73 87 101 121 139 155 162 155 152 157 168 178 187 192 199 208 211 220 223
249 199 196 223 241 240 229 221 220 230 246 189 200 227 250 213 201 195 182 193 205 200 200 205 203 199 188 182 182 179 195 207 205 206 198 196 199 176 157 163 174 181 190 197 187 172 168 165 163 160 162 161 159 181 186 165 161 164 163 160 153 148 140 136 137 133 130 129 134 137 132 128 122 115 111 96 83 75 72 80 88 96 114 129 137 136 136 138 138 138 153 175 178 189 197 214 238
253 222 190 210 226 225 222 228 235 232 232 223 211 222 238 228 207 183 177 197 205 197 193 196 204 202 185 176 178 177 194 223 227 220 205 198 200 184 167 166 169 169 174 185 190 177 158 152 149 148 149 155 167 189 190 169 164 166 162 158 150 141 136 138 138 133 132 134 138 139 137 133 126 121 116 107 97 91 91 85 82 88 90 99 108 108 111 114 112 112 115 135 142 153 156 183 211
238 240 214 211 220 221 220 228 237 235 234 238 221 215 227 222 192 175 180 200 201 193 189 188 199 204 186 172 165 174 198 226 233 228 219 209 201 192 180 168 162 149 145 163 178 159 141 138 132 132 138 158 174 190 198 179 168 165 161 153 143 138 139 140 137 135 137 139 140 140 140 138 136 132 123 118 111 105 109 101 85 88 84 83 91 96 103 103 99 97 92 86 80 76 82 71 81
194 231 226 213 216 218 223 233 237 236 235 240 227 216 229 228 180 179 196 201 191 187 186 183 179 163 188 193 172 187 202 212 221 221 240 227 202 193 180 141 117 96 96 119 118 112 132 145 151 153 157 165 168 171 182 187 175 165 158 147 140 139 142 140 140 142 145 145 144 146 147 146 144 142 136 129 118 114 115 109 96 86 82 79 81 87 96 97 94 91 86 81 73 68 78 82 78
211 227 221 205 208 209 215 221 222 229 234 236 224 212 223 230 200 203 192 167 165 184 177 174 170 163 178 191 186 202 205 205 208 201 226 230 211 172 104 69 48 58 79 103 115 125 142 155 158 158 162 168 170 170 168 169 174 166 151 144 143 142 143 144 146 148 148 148 149 151 152 152 151 149 144 134 122 119 117 115 115 97 82 74 76 82 84 89 92 91 86 82 75 71 76 89 92
219 225 220 207 204 204 216 215 210 224 230 230 217 204 215 217 111 73 142 125 108 97 145 167 175 169 174 174 185 207 203 195 203 199 216 224 97 77 85 92 90 90 102 122 140 148 153 160 160 159 165 167 167 171 166 159 164 163 150 147 145 144 147 149 149 149 148 149 150 152 156 159 159 155 147 134 124 119 113 116 117 95 86 79 80 86 86 92 99 97 93 89 82 77 79 86 89
213 218 218 209 203 206 222 219 213 223 211 197 206 198 218 212 130 103 98 117 113 71 93 155 163 145 166 175 184 202 200 196 201 201 205 107 93 97 103 114 120 123 134 146 151 152 153 159 160 155 160 163 163 167 165 157 159 158 153 151 148 148 152 153 151 150 148 147 150 157 162 161 158 155 146 131 123 119 109 108 103 89 89 90 89 90 89 90 98 100 97 93 88 81 82 85 84
210 225 227 218 215 215 229 234 230 238 212 186 192 195 221 224 138 122 130 128 123 96 91 140 141 147 186 185 176 182 194 198 186 158 113 93 104 111 112 117 123 130 138 140 139 141 140 138 136 145 153 157 161 164 161 160 160 156 155 155 155 153 153 155 153 149 149 150 153 159 161 155 152 149 142 129 121 119 113 110 108 102 101 100 98 97 92 87 90 98 96 91 89 85 86 87 84
205 223 230 226 228 225 236 266 356 326 277 195 188 203 198 156 119 118 130 129 131 141 152 154 153 162 168 153 153 163 164 155 130 104 93 98 106 107 109 113 117 122 122 119 122 129 133 132 134 153 161 156 158 161 161 163 160 155 158 161 159 155 153 155 152 147 150 151 155 159 154 149 144 140 137 128 122 121 119 117 116 113 110 106 103 99 97 94 93 97 96 93 92 89 88 88 85
203 215 228 228 237 244 246 236 162 188 260 229 195 209 159 142 151 139 142 141 137 143 147 145 143 136 123 111 120 130 121 115 113 102 99 103 106 106 109 112 118 125 123 123 127 129 132 135 138 149 161 157 155 158 159 160 158 157 162 163 159 155 154 154 149 147 148 148 152 155 151 148 143 140 139 132 128 124 120 119 118 117 114 110 105 100 99 99 98 97 94 91 91 89 87 86 85
231 216 224 220 232 256 259 248 201 201 233 227 203 211 193 183 187 165 168 162 131 124 118 108 98 92 91 92 101 107 106 109 109 104 105 109 113 117 121 122 123 125 123 124 125 121 122 131 136 140 147 148 149 154 154 156 160 164 166 166 161 155 151 148 144 142 143 146 151 154 154 153 148 146 144 139 136 130 123 121 119 118 117 113 109 105 102 100 98 97 95 92 92 92 90 87 87
250 264 252 227 228 232 231 240 229 219 233 229 211 212 215 220 191 170 172 152 121 118 118 111 103 94 90 88 94 99 100 99 95 95 103 114 126 135 138 134 124 116 114 113 109 102 106 121 129 130 136 141 141 144 144 152 163 168 172 170 160 152 147 145 143 142 145 148 151 158 159 156 154 153 149 145 144 140 135 131 126 126 123 118 115 111 107 104 101 100 98 96 96 96 97 94 92
234 261 262 240 244 242 228 235 237 231 230 231 224 210 200 340 90 140 145 132 126 128 123 121 115 104 99 97 97 100 102 105 103 99 97 102 112 119 123 124 122 115 92 73 85 92 93 104 122 125 136 150 153 147 141 146 157 165 171 168 160 155 149 146 145 146 152 154 155 164 164 158 158 158 155 154 154 151 148 144 139 136 131 126 123 120 116 112 108 107 105 103 102 102 103 100 97
212 225 234 232 234 232 232 242 253 253 236 221 232 209 127 26 31 89 113 126 132 132 126 124 114 104 99 96 95 92 92 100 111 114 113 109 106 105 108 111 108 102 91 81 91 94 96 106 124 124 130 142 154 162 161 159 159 165 172 170 167 162 154 153 152 153 158 160 163 169 166 161 161 162 162 162 162 160 157 154 150 144 138 133 129 126 124 121 116 113 111 111 111 110 107 104 103
226 215 222 230 229 224 231 234 234 250 254 240 240 205 106 32 7 74 116 126 126 130 126 117 109 103 98 95 96 97 94 95 104 111 115 119 121 121 122 120 111 99 99 105 102 96 99 109 128 135 132 132 142 163 175 177 174 176 179 175 171 164 159 163 165 162 165 167 171 173 167 164 164 165 169 169 166 164 163 160 156 149 144 139 136 133 131 128 125 121 120 120 120 117 113 112 113